This demonstration page uses our WeatherBlox Daily Observations layout. Learn more.

Left ArrowRight Arrow

Hourly Observations for February 8, 2020

Temp ( °F °C ) Dew Point ( °F °C ) Humidity (%) Winds ( mph kmh ) Pressure ( in mb ) Visibility ( mi km ) Precip ( " mm )
12:53 am 00:53 Cloudy 27 -2.8 22 -5.6 81 81 E 8 13 29.77 1008 10 16 0.00 0.00
1:53 am 01:53 Cloudy 27 -2.8 22 -5.6 81 81 E 9 15 29.72 1006 10 16 0.00 0.00
2:53 am 02:53 Cloudy 27 -2.8 22 -5.6 81 81 ENE 6 9 29.70 1006 10 16 0.00 0.00
3:53 am 03:53 Cloudy 28 -2.2 23 -5 81 81 ENE 8 13 29.65 1004 10 16 0.00 0.00
4:53 am 04:53 Cloudy 27 -2.8 23 -5 85 85 NE 9 15 29.63 1003 10 16 0.00 0.00
5:53 am 05:53 Mostly Cloudy 26 -3.3 22 -5.6 84 84 E 12 19 29.59 1002 10 16 0.00 0.00
6:42 am 06:42 Cloudy 26 -3.3 22 -5.6 84 84 ENE 16 26 29.65 1004 10 16 0.00 0.00
6:53 am 06:53 Cloudy 26 -3.3 22 -5.6 84 84 ENE 12 19 29.60 1002 10 16 0.00 0.00
7:53 am 07:53 Cloudy 27 -2.8 24 -4.4 89 89 ENE 13 20 29.61 1003 10 16 0.00 0.00
8:24 am 08:24 Cloudy with Light Snow 27 -2.8 24 -4.4 89 89 ENE 14 22 29.67 1005 2 3 0.00 0.00
8:42 am 08:42 Cloudy with Light Snow 27 -3 25 -4 93 93 ENE 15 24 29.68 1005 1 2 0.00 0.00
8:53 am 08:53 Cloudy with Light Snow 27 -2.8 25 -3.9 92 92 ENE 16 26 29.64 1004 1 2 0.01 0.25
9:06 am 09:06 Cloudy with Light Snow 28 -2 25 -4 86 86 ENE 16 26 29.68 1005 1 1 0.00 0.00
9:27 am 09:27 Cloudy with Snow 28 -2.2 26 -3.3 92 92 ENE 15 24 29.69 1005 1 1 0.02 0.51
9:53 am 09:53 Cloudy with Snow 28 -2.2 26 -3.3 92 92 NE 15 24 29.67 1005 1 1 0.05 1.27
10:48 am 10:48 Mostly Cloudy with Snow 28 -2 27 -3 93 93 ENE 15 24 29.74 1007 0 0 0.04 1.02
10:49 am 10:49 Mostly Cloudy with Snow 29 -1.7 27 -2.8 92 92 ENE 15 24 29.71 1006 0 0 0.04 1.02
11:01 am 11:01 Mostly Cloudy with Snow 29 -1.7 27 -2.8 92 92 NE 17 28 29.75 1007 1 1 0.01 0.25
11:40 am 11:40 Cloudy with Light Snow 27 -2.8 23 -5 85 85 NE 17 28 29.80 1009 1 2 0.03 0.76
11:53 am 11:53 Windy with Snow Likely 26 -3.3 23 -5 88 88 NE 21 33 29.77 1008 1 2 0.03 0.76
12:00 pm 12:00 Cloudy with Light Snow 26 -3.3 23 -5 88 88 NE 18 30 29.82 1010 1 1 0.00 0.00
12:24 pm 12:24 Mostly Cloudy with Snow 26 -3.3 23 -5 88 88 NE 17 28 29.85 1011 1 1 0.01 0.25
12:41 pm 12:41 Cloudy with Snow 27 -2.8 24 -4.4 89 89 ENE 15 24 29.86 1011 0 0 0.02 0.51
12:53 pm 12:53 Cloudy with Snow 27 -2.8 25 -3.9 92 92 ENE 16 26 29.83 1010 0 0 0.04 1.02
1:02 pm 13:02 Mostly Cloudy with Snow 28 -2.2 25 -3.9 88 88 NE 16 26 29.86 1011 1 1 0.01 0.25
1:11 pm 13:11 Cloudy with Snow 28 -2.2 25 -3.9 88 88 NNE 18 30 29.87 1012 1 1 0.01 0.25
1:34 pm 13:34 Mostly Cloudy with Light Snow 28 -2 25 -4 86 86 NNE 18 30 29.90 1013 1 2 0.00 0.00
1:53 pm 13:53 Cloudy with Light Snow 28 -2.2 25 -3.9 88 88 NNE 17 28 29.88 1012 1 2 0.02 0.51
1:59 pm 13:59 Cloudy with Light Snow 28 -2.2 24 -4.4 85 85 NNE 13 20 29.92 1013 2 3 0.00 0.00
2:07 pm 14:07 Cloudy with Light Snow 28 -2 25 -4 86 86 NNE 15 24 29.93 1014 7 11 0.00 0.00
2:53 pm 14:53 Cloudy 30 -1.1 23 -5 75 75 NNE 14 22 29.93 1014 10 16 0.00 0.00
3:53 pm 15:53 Cloudy 28 -2.2 22 -5.6 78 78 NNE 18 30 30.01 1016 10 16 0.00 0.00
4:53 pm 16:53 Cloudy 26 -3.3 19 -7.2 75 75 N 15 24 30.09 1019 10 16 0.00 0.00
5:53 pm 17:53 Clear 25 -3.9 18 -7.8 75 75 WNW 7 11 30.16 1021 10 16 0.00 0.00
6:53 pm 18:53 Clear 21 -6.1 16 -8.9 81 81 SW 8 13 30.21 1023 10 16 0.00 0.00
7:53 pm 19:53 Clear 19 -7.2 15 -9.4 84 84 WSW 6 9 30.25 1024 10 16 0.00 0.00
8:53 pm 20:53 Cloudy 18 -7.8 14 -10 84 84 WSW 9 15 30.29 1026 10 16 0.00 0.00
9:53 pm 21:53 Cloudy 20 -6.7 16 -8.9 85 85 WSW 9 15 30.31 1026 10 16 0.00 0.00
10:53 pm 22:53 Cloudy 22 -5.6 17 -8.3 82 82 SW 8 13 30.32 1027 10 16 0.00 0.00
11:53 pm 23:53 Cloudy 23 -5 18 -7.8 81 81 W 6 9 30.32 1027 10 16 0.00 0.00

Powered by AerisWeather